This demonstration page uses our WeatherBlox Daily Observations layout. Learn more.

36.17497, -115.13722

Hourly Observations for July 4, 2015

Temp ( °F °C ) Dew Point ( °F °C ) Humidity (%) Winds ( mph kmh ) Pressure ( in mb ) Visibility ( mi km ) Precip ( " mm )
12:53 am 00:53 Clear 93 34 48 9 21 21 WNW 9 15 29.59 1002 10 16.09344 0 0
1:53 am 01:53 Clear 93 34 43 6 17 17 WNW 3 6 29.59 1002 10 16.09344 0 0
2:53 am 02:53 Clear 93 34 43 6 17 17 NW 14 22 29.53 1000 10 16.09344 0 0
3:53 am 03:53 Clear 93 34 43 6 17 17 S 6 9 29.59 1002 10 16.09344 0 0
4:53 am 04:53 Clear 91 33 45 7 20 20 NNW 3 6 29.62 1003 10 16.09344 0 0
5:53 am 05:53 Sunny 90 32 41 5 18 18 NW 7 11 29.62 1003 10 16.09344 0 0
6:53 am 06:53 Mostly Cloudy 90 32 46 8 22 22 WNW 8 13 29.65 1004 10 16.09344 0 0
7:53 am 07:53 Partly Cloudy 91 33 50 10 24 24 N 6 9 29.68 1005 10 16.09344 0 0
8:53 am 08:53 Sunny 91 33 48 9 23 23 SSE 3 6 29.71 1006 10 16.09344 0 0
9:53 am 09:53 Mostly Cloudy 93 34 48 9 21 21 Calm 29.68 1005 10 16.09344 0 0
10:53 am 10:53 Partly Cloudy 97 36 45 7 17 17 N 7 11 29.68 1005 10 16.09344 0 0
11:53 am 11:53 Mostly Cloudy 95 35 45 7 18 18 NW 14 22 29.71 1006 10 16.09344 0 0
12:53 pm 12:53 Sunny 99 37 45 7 16 16 N 9 15 29.68 1005 10 16.09344 0 0
1:53 pm 13:53 Sunny 99 37 45 7 16 16 S 10 17 29.65 1004 10 16.09344 0 0
2:53 pm 14:53 Sunny 100 38 45 7 15 15 N 6 9 29.62 1003 10 16.09344 0 0
3:53 pm 15:53 Sunny 100 38 46 8 16 16 SSE 13 20 29.59 1002 10 16.09344 0 0
4:53 pm 16:53 Sunny 99 37 48 9 18 18 N 6 9 29.59 1002 10 16.09344 0 0
5:53 pm 17:53 Sunny 99 37 48 9 18 18 ESE 7 11 29.56 1001 10 16.09344 0 0
6:53 pm 18:53 Sunny 99 37 48 9 18 18 ESE 8 13 29.56 1001 10 16.09344 0 0
7:53 pm 19:53 Sunny 97 36 48 9 19 19 ESE 7 11 29.59 1002 10 16.09344 0 0
8:53 pm 20:53 Clear 97 36 48 9 19 19 SE 9 15 29.59 1002 10 16.09344 0 0
9:53 pm 21:53 Clear 93 34 48 9 21 21 ENE 8 13 29.65 1004 10 16.09344 0 0
10:53 pm 22:53 Clear 93 34 48 9 21 21 NE 8 13 29.65 1004 10 16.09344 0 0
11:53 pm 23:53 Clear 91 33 48 9 23 23 NW 3 6 29.65 1004 10 16.09344 0 0

Powered by AerisWeather